Flag for Dominican Republic Weather past 2 weeks in Santiago de los Caballeros, Dominican Republic

Now
91 °F

Passing clouds.


Feels Like: 96 °F
Forecast: N/A
Wind: 21 mph from Southeast

Location: Santiago

Current Time: Jul 5, 2015 at 5:26:14 PM

Latest Report: Jul 5, 2015 at 5:00 PM


Visibility: N/A

Pressure: 30.07 "Hg

Humidity: 46%

Dew point: 68 °F

Location of Santiago de los CaballerosLocation

Historic Weather in Santiago de los Caballeros — Graph

°F

Santiago de los Caballeros temperature yesterday

Maximum temperature yesterday: 91 °F (at 1:00 PM)
Minimum temperature yesterday: 77 °F (at 12:00 AM)
Average temperature yesterday: 82 °F

Past Weeks' High & Low Weather Summary

 TemperatureHumidityPressure
High93 °F (Jun 21, 4:00 PM)100% (Jun 22, 6:00 AM)30.15 "Hg (Jun 22, 6:00 AM)
Low70 °F (Jun 23, 7:00 AM)38% (Jul 3, 3:00 PM)29.98 "Hg (Jun 22, 4:00 PM)
Average81 °F75%30.07 "Hg
* Reported Jun 20 4:00 PM — Jul 5 4:00 PM, Santiago de los Caballeros, Weather by CustomWeather, © 2015

Note: Actual official high and low records may vary slightly from our data, if they occured in-between our weather recording intervals... More about our weather records

Advertising

Santiago de los Caballeros weather history for previous 24 hours

 ConditionsComfort  
Time TempWeatherWind HumidityBarometerVisibility
4:00 PM
Sun, Jul 5
93 °FScattered clouds.12 mph41%30.04 "HgN/A
3:00 PM93 °FScattered clouds.13 mph47%30.07 "HgN/A
2:00 PM91 °FPassing clouds.12 mph49%30.09 "HgN/A
1:00 PM91 °FScattered clouds.17 mph49%30.09 "HgN/A
12:00 PM88 °FScattered clouds.16 mph55%29.98 "HgN/A
11:00 AM88 °FScattered clouds.14 mph55%30.12 "HgN/A
10:00 AM82 °FScattered clouds.18 mph70%30.12 "HgN/A
9:00 AM81 °FPassing clouds.17 mph79%30.12 "HgN/A
8:00 AM75 °FPassing clouds.8 mph94%30.12 "HgN/A
7:00 AM75 °FPassing clouds.8 mph94%30.12 "HgN/A
6:00 AM73 °FPassing clouds.7 mph100%30.09 "HgN/A
5:00 AM75 °FPassing clouds.7 mph94%30.07 "HgN/A
4:00 AM75 °FPassing clouds.9 mph94%30.07 "HgN/A
3:00 AM75 °FPassing clouds.9 mph94%30.07 "HgN/A
2:00 AM75 °FPassing clouds.8 mph94%30.09 "HgN/A
1:00 AM77 °FPassing clouds.9 mph89%30.09 "HgN/A
12:00 AM77 °FPassing clouds.9 mph89%30.09 "HgN/A
11:00 PM
Sat, Jul 4
79 °FPassing clouds.6 mph84%30.09 "HgN/A
10:00 PM79 °FPassing clouds.13 mph79%30.09 "HgN/A
9:00 PM79 °FPassing clouds.17 mph79%30.07 "HgN/A
8:00 PM82 °FPassing clouds.17 mph66%30.04 "HgN/A
7:00 PM84 °FScattered clouds.14 mph66%30.04 "HgN/A
6:00 PM88 °FScattered clouds.17 mph59%30.01 "HgN/A
5:00 PM91 °FScattered clouds.17 mph52%29.98 "HgN/A
Weather by CustomWeather, © 2015

See weather overviewHow to use our weather pages